Tracking 28336 objects as of 4-Dec-2023
HD Live streaming from Space Station
objects crossing your sky now

INTELSAT 502

Track INTELSAT 502 now!
INTELSAT 502 is classified as:


NORAD ID: 12089
Int'l Code: 1980-098A
Perigee: 36,130.1 km
Apogee: 36,242.2 km
Inclination: 12.6 °
Period: 1,456.2 minutes
Semi major axis: 42557 km
RCS: 13.5237 m2 (large)
Launch date: December 6, 1980
Source: International Telecommunications Satellite Organization (ITSO)
Launch site: AIR FORCE EASTERN TEST RANGE (AFETR)
Your satellite tracking list
Your tracking list is empty




NASA's NSSDC Master Catalog

Two Line Element Set (TLE):
1 12089U 80098A   23337.55839347  .00000049  00000-0  00000+0 0  9999
2 12089  12.5934 333.1650 0013176 290.8754  80.4338  0.98888144124542
Source of the keplerian elements: AFSPC